Weather History for Alma, GA

Change the Weather History Date:

Sunday, February 17, 2013

  Actual Average Record
Temperature  
Mean Temperature 40 °F 55 °F  
Max Temperature 51 °F 66 °F 81 °F (2000)
Min Temperature 29 °F 43 °F 15 °F (1958)
Degree Days  
Heating Degree Days 25 11  
Month to date heating degree days 204 205  
Since 1 July heating degree days 1055 1294  
Cooling Degree Days 0 0  
Month to date cooling degree days 3 0  
Year to date cooling degree days 27 5  
Moisture  
Dew Point 16 °F    
Average Humidity 51    
Maximum Humidity 85    
Minimum Humidity 16    
Precipitation  
Precipitation 0.00 in 0.14 in 1.72 in (1992)
Month to date precipitation 3.98 2.26  
Year to date precipitation 4.55 6.52  
Snow  
Snow 0.00 in 0.00 in 0.00 in ()
Month to date snowfall 0.0 0.0  
Since 1 July snowfall 0.0 0.1  
Snow Depth 0.00 in    
Sea Level Pressure  
Sea Level Pressure 30.27 in    
Wind  
Wind Speed 7 mph (WNW)    
Max Wind Speed 17 mph    
Max Gust Speed 25 mph    
Visibility 10 miles    
Events      
T = Trace of Precipitation, MM = Missing Value Source: NWS Daily Summary

Daily Weather History Graph

Daily Weather History Graph

Search for Another Location

Airport:

Trip Planner

Search our weather history database for the weather conditions in past years. The results will help you decide how hot, cold, wet, or windy it might be!

Date:

Astronomy

Feb. 17, 2013 Rise Set
Actual Time 7:09 AM EST 6:18 PM EST
Civil Twilight 6:44 AM EST 6:43 PM EST
Nautical Twilight 6:16 AM EST 7:12 PM EST
Astronomical Twilight 5:48 AM EST 7:40 PM EST
Moon 11:31 AM EST (2/17) 12:44 AM EST (2/17)
Length of Visible Light 11h 58m
Length of Day
11h 09m
Waxing Crescent, 49% of the Moon is Illuminated
Feb 17
Waxing Crescent
Feb 17
First Quarter
Feb 25
Full
Mar 4
Last Quarter
Mar 11
New

Hourly Weather History & Observations

Time (EST) Temp. Windchill Dew Point Humidity Pressure Visibility Wind Dir Wind Speed Gust Speed Precip Events Conditions
12:53 AM 35.1 °F 32.2 °F 17.1 °F 48% 30.17 in 10.0 mi West 3.5 mph - N/A   Clear
1:53 AM 35.1 °F 28.6 °F 18.0 °F 50% 30.18 in 10.0 mi WNW 8.1 mph - N/A   Clear
2:53 AM 34.0 °F 28.0 °F 18.0 °F 52% 30.19 in 10.0 mi WNW 6.9 mph - N/A   Clear
3:53 AM 33.1 °F 28.7 °F 19.0 °F 56% 30.20 in 10.0 mi WNW 4.6 mph - N/A   Clear
4:53 AM 33.1 °F 25.5 °F 19.0 °F 56% 30.21 in 10.0 mi NW 9.2 mph - N/A   Clear
5:53 AM 32.0 °F 24.8 °F 19.0 °F 59% 30.24 in 10.0 mi NW 8.1 mph - N/A   Clear
6:53 AM 30.0 °F 24.1 °F 19.9 °F 66% 30.25 in 10.0 mi WNW 5.8 mph - N/A   Clear
7:53 AM 32.0 °F 25.6 °F 19.9 °F 61% 30.28 in 10.0 mi NW 6.9 mph - N/A   Clear
8:53 AM 36.0 °F 27.5 °F 15.1 °F 43% 30.31 in 10.0 mi NNW 12.7 mph - N/A   Clear
9:53 AM 39.0 °F 31.8 °F 10.9 °F 32% 30.33 in 10.0 mi NNW 11.5 mph 20.7 mph N/A   Clear
10:53 AM 42.1 °F 35.2 °F 7.0 °F 24% 30.34 in 10.0 mi NW 12.7 mph 18.4 mph N/A   Clear
11:53 AM 44.1 °F 39.0 °F 7.0 °F 22% 30.32 in 10.0 mi NW 9.2 mph - N/A   Clear
12:53 PM 46.0 °F 40.6 °F 6.1 °F 20% 30.31 in 10.0 mi West 11.5 mph 20.7 mph N/A   Clear
1:53 PM 48.0 °F - 7.0 °F 19% 30.28 in 10.0 mi West 9.2 mph 19.6 mph N/A   Clear
2:53 PM 50.0 °F - 7.0 °F 18% 30.27 in 10.0 mi WNW 10.4 mph 19.6 mph N/A   Clear
3:53 PM 50.0 °F - 8.1 °F 18% 30.26 in 10.0 mi WNW 15.0 mph 20.7 mph N/A   Clear
4:53 PM 50.0 °F - 10.0 °F 20% 30.26 in 10.0 mi West 10.4 mph 21.9 mph N/A   Clear
5:53 PM 48.0 °F - 10.9 °F 22% 30.27 in 10.0 mi WNW 8.1 mph - N/A   Clear
6:53 PM 39.9 °F - 19.9 °F 45% 30.29 in 10.0 mi Calm Calm - N/A   Clear
7:53 PM 35.1 °F - 25.0 °F 67% 30.31 in 10.0 mi Calm Calm - N/A   Clear
8:53 PM 34.0 °F - 27.0 °F 75% 30.32 in 10.0 mi Calm Calm - N/A   Clear
9:53 PM 30.9 °F - 25.0 °F 79% 30.34 in 10.0 mi Calm Calm - N/A   Clear
10:53 PM 30.9 °F - 26.1 °F 82% 30.35 in 10.0 mi Calm Calm - N/A   Clear